Terminal Aerodrome Forecast
Issued by NWS Bismarck, ND

Home | Current Version | Previous Version | Graphics & Text | Print | Product List | Glossary On
Versions: 1 2 3 4 5 6 7 8 9 10 11 12 13 14 15 16 17 18 19 20
000
FTUS43 KBIS 201829 AAA
TAFISN
TAF AMD
KISN 201829Z 2018/2118 32013G23KT P6SM FEW040
     FM202000 33011KT P6SM SCT250
     FM210500 03007KT P6SM SCT200
     FM211000 06007KT P6SM SCT120
     FM211400 09007KT P6SM SCT060=

USA.gov is the U.S. government's official web portal to all federal, state and local government web resources and services.